CW8427 Weather Reports


time (UTC)temp
C
wind
direction
speed
KPH
gust
KPH
rain 1hr
cm
rain 24hr
cm
rain mn
cm
humidity
%
barometer
mb
20260505022627 20 205 4.8 9.7 0.00 0.03 0.03 32 1005.0
20260505021628 20 193 6.4 11.3 0.00 0.03 0.03 31 1004.9
20260505020650 21 237 6.4 12.9 0.00 0.03 0.03 31 1004.8
20260505015636 21 208 6.4 12.9 0.00 0.03 0.03 30 1004.7
20260505014617 21 213 11.3 16.1 0.00 0.03 0.03 29 1004.7
20260505013625 21 157 9.7 14.5 0.00 0.03 0.03 29 1004.7
20260505012626 21 197 8.0 19.3 0.00 0.03 0.03 29 1004.7
20260505011626 21 173 12.9 22.5 0.00 0.03 0.03 30 1004.9
20260505010630 22 184 9.7 17.7 0.00 0.03 0.03 29 1004.9
20260505005633 22 205 14.5 22.5 0.00 0.03 0.03 28 1005.0
20260505004636 22 173 12.9 24.1 0.00 0.03 0.03 27 1004.9
20260505003636 22 211 9.7 16.1 0.00 0.03 0.03 27 1005.0
20260505002619 22 260 11.3 17.7 0.00 0.03 0.03 27 1005.0
20260505001620 22 224 12.9 24.1 0.00 0.03 0.03 28 1005.2
20260505000620 22 255 14.5 20.9 0.00 0.03 0.03 27 1005.2
20260504235623 22 231 12.9 19.3 0.00 0.03 0.03 27 1005.3
20260504234646 22 257 14.5 22.5 0.00 0.03 0.03 28 1005.3
20260504233626 22 244 20.9 30.6 0.00 0.03 0.03 28 1005.3
20260504232629 23 255 17.7 32.2 0.00 0.03 0.03 28 1005.2
20260504231635 23 244 16.1 33.8 0.00 0.03 0.03 29 1005.3
20260504230656 23 173 17.7 29.0 0.00 0.03 0.03 28 1005.2
20260504225640 23 242 9.7 17.7 0.00 0.03 0.03 24 1005.2
20260504224623 23 261 14.5 20.9 0.00 0.03 0.03 23 1005.2
20260504223627 24 336 4.8 20.9 0.00 0.03 0.03 22 1005.3
20260504222648 24 271 3.2 17.7 0.00 0.03 0.03 23 1005.2
20260504221634 23 278 11.3 17.7 0.00 0.03 0.03 21 1005.4
20260504220618 23 344 9.7 20.9 0.00 0.03 0.03 23 1005.4
20260504215621 23 283 6.4 17.7 0.00 0.03 0.03 21 1005.6
20260504214627 23 311 6.4 16.1 0.00 0.03 0.03 24 1005.7
20260504193632 22 284 1.6 17.7 0.00 0.03 0.03 30 1007.3
20260504192628 22 305 12.9 22.5 0.00 0.03 0.03 32 1007.4
20260504191646 22 271 8.0 14.5 0.00 0.03 0.03 32 1007.5
20260504190627 22 355 6.4 16.1 0.00 0.03 0.03 31 1007.6
20260504185625 22 286 3.2 17.7 0.00 0.03 0.03 33 1007.7
20260504184627 22 324 9.7 14.5 0.00 0.03 0.03 33 1007.8
20260504183624 22 264 14.5 20.9 0.00 0.03 0.03 32 1007.9
20260504182627 22 200 6.4 20.9 0.00 0.03 0.03 29 1008.1
20260504181630 22 281 8.0 14.5 0.03 0.03 0.03 34 1008.2
20260504180616 22 105 4.8 14.5 0.03 0.03 0.03 34 1008.4
20260504175618 21 173 6.4 11.3 0.03 0.03 0.03 34 1008.5